星链-37111(STARLINK-37111)

导读

STARLINK-37111(NORAD编号68381)是美国SpaceX公司星链(Starlink)星座的低轨卫星,属于全球卫星互联网项目的组成部分。星链项目旨在通过部署近地轨道卫星,为全球包括偏远地区在内的用户提供高速低延迟宽带互联网服务,该卫星运行于近地轨道,依托星链的相控阵天线、星间激光链路等技术,可提供高带宽连接,支持多用户同时接入。作为星链大规模组网的一员,它助力扩展星座覆盖范围,推动全球互联网接入普及,但该卫星也同其他星链卫星一样,引发了关于太空拥堵、天文观测干扰等方面的担忧。

Basic Information
目录编号:
68381
目录名称:
STARLINK-37111
国际标识:
2026-063B
轨道中心:
EARTH
卫星名称:
星链-37111
卫星全名:
星链-37111(STARLINK-37111)
卫星状态:
在轨 (已飞行170 天)
发射日期:
2026-03-26 UTC
国别 :
美国 (US)
星等 :
--
This satellite is enrolled in the Space Conjunction Data Service (SCDS) and the current flight risk assessment level is: High Risk
Orbit Information
数据来源 国际轨道数据
星历时间: 2026-09-12T03:22:08+0800
8小时前
查看轨道信息
半长轴: 6843.647km
偏心率: 0.0000593
轨道倾角: 97.286°
近地点辐角 45.925°
升交点赤经 35.750°
平近点角 314.204°
近地点: 465.104km
远地点: 465.916km
周期: 93.906分钟
每日圈数: 15.334564
Detailed Information
固有亮度:
5
最大亮度:
2.5
卫星平台:
Starlink V1.0
覆盖范围:
全球
运营商:
太空探索技术公司
运营商所在国:
美国
制造商(研发单位):
太空探索技术公司
制造商所在国:
美国
使用方式:
暂无
Satellite Introduction
Starlink 计划是 SpaceX 推出的全球卫星互联网项目,通过发射低轨道卫星,为全球尤其是偏远地区提供高速、低延迟的互联网服务。自 2019 年起,Starlink 已部署数千颗卫星,旨在缩小全球数字鸿沟,推动互联网普及。该项目还为军事、航空等行业提供通信支持,带来广泛经济效益。
2D Orbit Map
3D Orbit Map
Orbit Altitude Analysis Chart
Orbit Inclination Analysis Chart
Orbit Comprehensive Analysis Chart
View Comprehensive Chart
Conjunction Data List
Event ID Objects TCA Miss Dist (km) Collision Risk Probability Collision Risk Index (CRI) Action
CDM_260912-192001-927406-838121
OKEAN 1 (19274)
2026-09-12T
19:20:45+0000
1.657 km
极远距离
2.419637E-6 低风险 0.43
CDM_260912-192706-460306-838121
2026-09-12T
19:27:51+0000
2.349 km
极远距离
1.933634E-6 低风险 0.41
CDM_260912-214806-460306-838121
2026-09-12T
21:48:44+0000
2.510 km
极远距离
1.701811E-6 低风险 0.4
CDM_260912-095206-186906-838122
OBJECT A (61869)
2026-09-12T
09:52:33+0000
2.390 km
极远距离
1.397448E-6 低风险 0.38
CDM_260911-230506-019606-838121
2026-09-11T
23:05:12+0000
2.936 km
极远距离
1.33264E-6 低风险 0.37
CDM_260912-063306-167006-838121
2026-09-12T
06:33:51+0000
2.893 km
极远距离
1.206532E-6 低风险 0.37
CDM_260912-074905-328306-838121
2026-09-12T
07:49:09+0000
2.557 km
极远距离
1.002946E-6 低风险 0.35
Miss Distance Evolution Trend with All Objects
Collision Probability Evolution Trend with All Objects